Skip Navigation Linkswww.weather.gov 
NOAA logo - Click to go to the NOAA homepage National Weather Service Forecast Office   NWS logo - Click to go to the NWS homepage    
Los Angeles, California
navigation bar decoration      
spacer
Printer Friendly  |   Go Back  |  Version: Current   1   2   3   4   5   6   7   8   9   10   |  Font:  A A A  |  

HOURLY WEATHER ROUNDUP
 
 ASUS46 KSTO 190709
RWRCA

NORTHERN AND CENTRAL CA REGIONAL WEATHER ROUNDUP
NATIONAL WEATHER SERVICE SACRAMENTO CA
1200 AM PDT SUN APR 19 2015

NOTE: FAIR INDICATES FEW OR NO CLOUDS BELOW 12,000 FEET WITH NO
SIGNIFICANT WEATHER AND/OR OBSTRUCTIONS TO VISIBILITY.

CAZ001-003-190800-
NORTHWEST AREA

CITY SKY/WX TMP DP RH WIND PRES REMARKS
CRESCENT CITY MOCLDY 49 47 93 CALM 29.98S FOG
ARCATA NOT AVBL
SHELTER COVE NOT AVBL
UKIAH CLEAR 56 45 66 E3 29.93S
$$

CAZ006-505>513-190800-
BAY AREA

CITY SKY/WX TMP DP RH WIND PRES REMARKS
SANTA ROSA CLOUDY 48 46 93 SE3 29.94S FOG
SAN RAFAEL N/A 50 MM MM MISG
NAPA CLEAR 52 50 93 CALM 29.94S
CONCORD CLEAR 55 49 80 N5 29.92S
OAKLAND CITY N/A 55 MM MM MISG
OAKLAND PTCLDY 51 48 89 NW13 29.96S
SAN FRAN CITY N/A 50 MM 93 MISG
SAN FRAN ARPT PTCLDY 52 52 100 W12 29.95F
LIVERMORE CLEAR 60 45 57 NW3 29.92S
HAYWARD CLEAR 52 48 86 NW5 29.95S
REDWOOD CITY N/A MM MM MM MISG
MOFFETT ARPT CLEAR 55 50 83 NW3 29.96S
SAN JOSE ARPT CLEAR 55 51 86 CALM 29.95F
$$
CAZ034-037-514>518-190800-
CENTRAL COAST

CITY SKY/WX TMP DP RH WIND PRES REMARKS
WATSONVILLE CLOUDY 54 51 90 CALM 29.98F
SALINAS CLOUDY 54 49 83 NW6 29.98S
MONTEREY CLOUDY 51 48 89 SW6 29.99S
PT PIEDRAS BLS NOT AVBL
SAN LUIS OBISP CLOUDY 51 49 92 CALM 30.00S
SANTA MARIA CLOUDY 53 48 83 CALM 30.00S HAZE
$$
CAZ015-016-190800-
NORTHERN SACRAMENTO VALLEY

CITY SKY/WX TMP DP RH WIND PRES REMARKS
REDDING PTCLDY 75 38 26 N9 29.89R
RED BLUFF PTCLDY 62 48 60 N6 29.89R
OROVILLE PTCLDY 67 50 54 S5 29.89S
$$
CAZ016>018-190800-
SOUTHERN SACRAMENTO VALLEY

CITY SKY/WX TMP DP RH WIND PRES REMARKS
AUBURN CLEAR 63 45 51 E9 29.94S
BEALE AFB PTCLDY 64 47 55 NE6 29.87R
LINCOLN FAIR 55 46 71 E8 29.88R
MARYSVILLE PTCLDY 63 52 67 E5 29.88R
SAC INTL ARPT PTCLDY 60 50 69 S5 29.87S
MATHER AIRPORT NOT AVBL
DOWNTOWN SAC N/A 63 MM MM MISG
SAC EXEC ARPT PTCLDY 60 49 66 SW5 29.88S
VACAVILLE CLEAR 64 48 56 SW5 29.88S
TRAVIS AFB CLEAR 55 51 85 SW16 29.86F
$$
CAZ019>021-190800-
SAN JOAQUIN VALLEY

CITY SKY/WX TMP DP RH WIND PRES REMARKS
STOCKTON CLEAR 61 51 70 W5 29.88S
MODESTO PTCLDY 66 46 48 NE3 29.88S
MERCED PTCLDY 66 47 50 N7 29.88S
LEMOORE CLEAR 61 29 29 W7 29.90S
FRESNO PTCLDY 69 37 30 W5 29.89S
HANFORD CLEAR 65 41 41 CALM 29.90R
PORTERVILLE CLEAR 63 36 36 S8 29.91R
BAKERSFIELD CLEAR 70 27 20 N8 29.91R
$$
CAZ011-012-071-190800-
NORTHERN MOUNTAINS

CITY SKY/WX TMP DP RH WIND PRES REMARKS
YREKA CLEAR 58 25 28 N8 30.09R
MOUNT SHASTA CLEAR 49 33 54 CALM 30.10R
ALTURAS CLEAR 50 20 30 N12 30.15S
$$
CAZ011-012-071-190800-
SIERRA NEVADA MTNS

CITY SKY/WX TMP DP RH WIND PRES REMARKS
BLUE CANYON CLEAR 58 18 21 VRB7 30.10S
TRUCKEE PTCLDY 36 28 75 CALM 30.16R
TAHOE VLY ARPT PTCLDY 42 25 50 CALM 30.16R
MAMMOTH LAKES FAIR 43 14 31 W6 30.18S
$$



Webmaster
US Dept of Commerce
National Oceanic and Atmospheric Administration
National Weather Service
Los Angeles/Oxnard Weather Forecast Office
520 North Elevar Street
Oxnard, CA 93030

Tel: (805) 988-6610

Disclaimer
Information Quality
Credits
Glossary
Organization
Privacy Policy
Freedom of Information Act
About Us
Career Opportunities